[[{"header":{"parameterUnit":"m.s-1","parameterCategory":1,"la1":30.2991,"la2":30.254,"lo1":-89.0895,"lo2":-89.0444,"dy":0.0017,"dx":0.0017,"nx":28,"ny":28,"refTime":"2024-04-30T03:00:00:Z","depth":0,"parameterNumber":2,"parameterNumberName":"U-component_of_WINDS"},"data":[0,0,0,0,0,0,0,0,0,0,0,0,0,0,0,0,0,0,0,0,0,0,0,0,0,0,0,0,0,0,0,0,0,0,0,0,0,0,0,0,0,0,0,0,0,0,0,0,0,0,0,0,0,0,0,0,0,0,-0.014,-0.014,0,-0.0086,-0.0085,-0.0084,-0.0068,-0.0068,-0.0068,-0.0068,-0.0011,-0.0009,-0.0008,0,0,0,0,0,0,0,0,0,0,0,0,0,-0.0231,-0.023,-0.014,-0.014,-0.0139,-0.0086,-0.0085,-0.0084,-0.0068,-0.0068,-0.0068,-0.0068,-0.0012,-0.001,-0.0007,0,0,0,0,0,0,0,0,0,0,0,0,0,-0.0186,-0.0229,-0.0141,-0.0124,-0.0122,-0.0086,-0.0085,-0.0084,-0.0067,-0.0068,-0.0068,-0.0069,-0.0012,-0.001,-0.0007,0.0018,0,0,0.0001,0.0002,0,0,0,0,0,0,0,0,-0.0188,-0.0182,-0.0127,-0.0125,-0.0123,-0.0084,-0.0096,-0.005,-0.0067,-0.0088,-0.0068,-0.0069,-0.0035,-0.003,-0.0019,0.002,0.0023,0.0001,0.0003,0.0004,0.0005,0,0,0,0,0,0,0,-0.0191,-0.0184,-0.0119,-0.0127,-0.0124,-0.012,-0.0114,-0.0087,-0.006,-0.0086,-0.0085,-0.0079,-0.0034,-0.0022,-0.0018,0.0024,0.0001,0.0004,0.0005,0.0006,0.0084,0.0085,0,0,0,0,0,0,-0.0197,-0.0187,-0.012,-0.0117,-0.0157,-0.0118,-0.0111,-0.0096,-0.006,-0.0055,-0.0079,-0.0078,-0.0026,-0.0021,-0.0016,0.0015,0.0004,0.0007,0.0008,0.0084,0.0084,0.0085,0,0,0,0,0,0,-0.0199,-0.0191,-0.0123,-0.0152,-0.0143,-0.0116,-0.0099,-0.0095,-0.0083,-0.0054,-0.0049,-0.0071,-0.0026,-0.0019,0.0009,0.0017,0.0008,0.001,0.0083,0.0084,0.0085,0.0076,0,0,0,0,0,0,-0.0202,-0.0192,-0.0182,-0.0152,-0.0141,-0.0099,-0.0098,-0.0093,-0.0078,-0.0077,-0.0046,-0.0041,-0.0026,0.0005,0.0011,0.002,0.0012,0.0083,0.0084,0.0084,0.0076,0.0076,0.0077,0,0,0,0,0,-0.0205,-0.0186,-0.0182,-0.0174,-0.0128,-0.0099,-0.0093,-0.0076,-0.0078,-0.0068,-0.005,-0.0042,0.0015,0.0007,0.0015,0.0025,0.0082,0.0083,0.0084,0.0075,0.0076,0.0077,0,0,0,0,0,0,-0.0216,-0.0182,-0.0177,-0.0147,-0.0126,-0.0096,-0.0083,-0.0075,-0.0053,-0.0053,-0.0033,-0.0026,0.0001,0.0016,0.0007,0.005,0.0049,0.0051,0.0039,0.004,0.0041,0.0037,0.0014,0,0,0,0,0,-0.0215,-0.0194,-0.0165,-0.0142,-0.0132,-0.011,-0.0096,-0.0085,-0.0062,-0.0053,-0.0033,-0.001,0.0012,0.0027,0.005,0.0078,0.0084,0.0088,0.0089,0.0089,0.0091,0.0106,0.0108,0.0088,0.0088,0.0088,0,0,-0.0213,-0.0192,-0.0179,-0.0144,-0.0126,-0.0105,-0.0102,-0.0079,-0.0063,-0.0049,-0.0022,-0.0006,0.002,0.0047,0.0061,0.0061,0.0098,0.009,0.009,0.0093,0.0107,0.0109,0.011,0.0089,0.0089,0.0089,0,0,-0.0198,-0.018,-0.0159,-0.0142,-0.0115,-0.0101,-0.0096,-0.0067,-0.0057,-0.0029,-0.0018,0.0001,0.004,0.0058,0.0072,0.0091,0.0099,0.0098,0.0101,0.0115,0.0117,0.0118,0.0124,0.0126,0.01,0.01,0.01,0,-0.0198,-0.0166,-0.0149,-0.0128,-0.0113,-0.01,-0.0079,-0.0063,-0.0031,-0.0021,-0.0021,0.0027,0.0045,0.0077,0.0081,0.0092,0.0098,0.0095,0.0115,0.0117,0.0118,0.0124,0.0127,0.01,0.01,0.01,0.01,0,-0.0168,-0.0146,-0.0133,-0.0103,-0.0086,-0.0065,-0.0046,-0.0031,-0.0022,-0.0008,0.0019,0.0042,0.0069,0.0077,0.0086,0.0109,0.0108,0.0111,0.011,0.012,0.0126,0.0128,0.0099,0.0099,0.0099,0.01,0,0,-0.0158,-0.012,-0.0115,-0.0102,-0.0073,-0.0055,-0.0034,-0.0009,0.0003,0.0025,0.0042,0.0074,0.0077,0.0093,0.0104,0.0116,0.0129,0.0118,0.0118,0.0118,0.0154,0.0152,0.0154,0.0134,0.0134,0.0135,0.0152,0,-0.0139,-0.0101,-0.0086,-0.0055,-0.0035,-0.0024,-0.0006,0.0014,0.0028,0.0047,0.0062,0.0084,0.0086,0.0095,0.0108,0.0125,0.0136,0.0124,0.015,0.0151,0.0143,0.0158,0.0155,0.0171,0.0154,0.0155,0.0155,0,-0.0113,-0.0092,-0.0059,-0.0034,-0.0025,-0.0009,0.0015,0.0033,0.0055,0.0064,0.0081,0.0091,0.0113,0.011,0.0141,0.0132,0.0143,0.0153,0.0154,0.0157,0.0154,0.0161,0.0176,0.0178,0.0159,0.0159,0.0159,0,-0.0109,-0.0073,-0.0049,-0.0038,-0.0007,0.0004,0.0017,0.0038,0.0052,0.0073,0.0082,0.0105,0.0118,0.0135,0.0151,0.0148,0.018,0.0179,0.0188,0.0187,0.0194,0.0193,0.0211,0.0202,0.0202,0.0202,0.0201,0,-0.009,-0.0071,-0.0047,-0.0032,-0.0011,0.0006,0.0027,0.0041,0.006,0.0077,0.0089,0.0105,0.0125,0.0143,0.0156,0.0178,0.0184,0.0192,0.0195,0.0191,0.019,0.0199,0.0198,0.0202,0.0202,0.0202,0.0202,0,-0.0082,-0.0065,-0.0039,-0.0013,-0.0006,0.0009,0.0031,0.0046,0.0059,0.0081,0.0087,0.0108,0.013,0.0148,0.0177,0.0185,0.0209,0.0213,0.0201,0.0203,0.0211,0.021,0.0235,0.0239,0.0227,0.0227,0.0227,0,-0.0071,-0.0056,-0.0029,-0.0017,-0.0004,0.0016,0.0029,0.0046,0.006,0.0085,0.0096,0.0119,0.0138,0.0172,0.0191,0.0212,0.0217,0.0224,0.022,0.0215,0.0216,0.0215,0.0216,0.0224,0.0224,0.0224,0.0224,0,-0.0054,-0.0047,-0.0028,-0.0006,0.001,0.0028,0.0047,0.0056,0.0076,0.009,0.0113,0.0127,0.0156,0.0178,0.0202,0.0215,0.0223,0.0225,0.0228,0.0224,0.0217,0.022,0.0202,0.0225,0.0225,0.0225,0.0225,0.0225,-0.0045,-0.0031,-0.001,0.001,0.0026,0.0042,0.0057,0.0071,0.009,0.0115,0.0123,0.0146,0.0166,0.0198,0.0212,0.023,0.023,0.0235,0.0236,0.0237,0.0236,0.0214,0.0234,0.0234,0.0234,0.0234,0.0234,0,-0.0027,-0.0014,0.0005,0.003,0.0046,0.0051,0.0071,0.0084,0.0104,0.0122,0.014,0.0165,0.0186,0.0206,0.0227,0.0238,0.0242,0.0243,0.0243,0.0245,0.0235,0.023,0.0239,0.0239,0.0239,0.0239,0.0239,0.0239,-0.0016,0.0006,0.0016,0.0045,0.0059,0.0081,0.0092,0.0107,0.0121,0.0148,0.0166,0.0178,0.0196,0.0219,0.0239,0.0244,0.0251,0.0251,0.0257,0.0247,0.0246,0.0245,0.0241,0.0253,0.0253,0.0266,0.0266,0.0266]},{"header":{"parameterUnit":"m.s-1","parameterCategory":1,"la1":30.2991,"la2":30.254,"lo1":-89.0895,"lo2":-89.0444,"dy":0.0017,"dx":0.0017,"nx":28,"ny":28,"refTime":"2024-04-30T03:00:00:Z","depth":0,"parameterNumber":3,"parameterNumberName":"V-component_of_WINDS"},"data":[0,0,0,0,0,0,0,0,0,0,0,0,0,0,0,0,0,0,0,0,0,0,0,0,0,0,0,0,0,0,0,0,0,0,0,0,0,0,0,0,0,0,0,0,0,0,0,0,0,0,0,0,0,0,0,0,0,0,3.1166,3.1166,0,3.1123,3.1123,3.1122,3.1105,3.1105,3.1106,3.1106,3.1057,3.1056,3.1055,0,0,0,0,0,0,0,0,0,0,0,0,0,3.1228,3.1227,3.1166,3.1166,3.1165,3.1123,3.1123,3.1122,3.1105,3.1105,3.1106,3.1106,3.1058,3.1056,3.1055,0,0,0,0,0,0,0,0,0,0,0,0,0,3.1195,3.1227,3.1166,3.1152,3.115,3.1124,3.1123,3.1122,3.1105,3.1105,3.1106,3.1106,3.1058,3.1056,3.1054,3.1038,0,0,3.1048,3.1047,0,0,0,0,0,0,0,0,3.1197,3.1192,3.1154,3.1153,3.1151,3.112,3.1127,3.1094,3.1105,3.1122,3.1106,3.1106,3.1078,3.1074,3.1066,3.1036,3.1033,3.1048,3.1046,3.1046,3.1045,0,0,0,0,0,0,0,3.1199,3.1194,3.1149,3.1154,3.1152,3.1146,3.1141,3.1121,3.1099,3.1121,3.1119,3.1115,3.1077,3.1068,3.1064,3.1033,3.1048,3.1046,3.1045,3.1044,3.0985,3.0984,0,0,0,0,0,0,3.1204,3.1196,3.115,3.1148,3.1175,3.1144,3.1139,3.113,3.11,3.1095,3.1115,3.1114,3.1071,3.1067,3.1063,3.104,3.1046,3.1044,3.1042,3.0985,3.0985,3.0984,0,0,0,0,0,0,3.1206,3.12,3.1152,3.1172,3.1165,3.1143,3.1132,3.1129,3.112,3.1095,3.1091,3.111,3.1071,3.1065,3.1044,3.1038,3.1043,3.1041,3.0985,3.0985,3.0984,3.0996,0,0,0,0,0,0,3.1208,3.1201,3.1196,3.1172,3.1164,3.1136,3.1132,3.1128,3.1117,3.1115,3.1089,3.1085,3.1071,3.1047,3.1042,3.1035,3.1039,3.0986,3.0985,3.0985,3.0996,3.0996,3.0996,0,0,0,0,0,3.121,3.12,3.1196,3.119,3.1158,3.1136,3.1131,3.1117,3.1116,3.111,3.1094,3.1086,3.104,3.1045,3.1039,3.1032,3.0986,3.0985,3.0985,3.0996,3.0996,3.0996,0,0,0,0,0,0,3.1223,3.1197,3.1192,3.1174,3.1158,3.1133,3.1125,3.1117,3.1099,3.1099,3.108,3.1074,3.1054,3.104,3.1047,3.1013,3.1012,3.101,3.1023,3.1022,3.1022,3.1026,3.1037,0,0,0,0,0,3.1225,3.1211,3.1188,3.1174,3.1166,3.1147,3.1137,3.1127,3.1108,3.1101,3.1083,3.1064,3.1045,3.1033,3.1014,3.0994,3.0986,3.0985,3.0985,3.0985,3.0984,3.097,3.0969,3.0982,3.0982,3.0982,0,0,3.1226,3.121,3.1202,3.1177,3.1163,3.1147,3.1141,3.1125,3.1113,3.1098,3.1077,3.1063,3.104,3.1019,3.1008,3.1007,3.0978,3.0984,3.0985,3.0983,3.0969,3.0968,3.0967,3.0981,3.0981,3.0982,0,0,3.1222,3.1209,3.1196,3.1182,3.1161,3.1148,3.1145,3.1121,3.1111,3.109,3.1078,3.1062,3.103,3.1014,3.1002,3.0989,3.098,3.0983,3.0983,3.097,3.0968,3.0967,3.0962,3.096,3.0982,3.0982,3.0982,0,3.1226,3.1204,3.119,3.1174,3.1162,3.1149,3.1135,3.1121,3.1094,3.1086,3.1085,3.1044,3.1027,3.1001,3.0998,3.0989,3.0983,3.0986,3.097,3.0969,3.0968,3.0962,3.096,3.0982,3.0982,3.0982,3.0982,0,3.121,3.1195,3.1186,3.1162,3.1149,3.1134,3.1116,3.1104,3.1095,3.1081,3.1058,3.1038,3.1014,3.1007,3.0998,3.0979,3.0978,3.0974,3.0973,3.0967,3.0961,3.0959,3.0983,3.0983,3.0982,3.0982,0,0,3.1214,3.1181,3.1178,3.1166,3.1142,3.1128,3.1111,3.109,3.1079,3.1061,3.1045,3.1018,3.1013,3.0999,3.0987,3.0976,3.0965,3.0972,3.0971,3.0971,3.0941,3.0944,3.0942,3.0959,3.0959,3.0958,3.0943,0,3.1205,3.1177,3.1163,3.114,3.1124,3.111,3.1095,3.1077,3.1064,3.1047,3.1031,3.1011,3.1008,3.0999,3.0987,3.0969,3.0959,3.097,3.0942,3.0942,3.0948,3.0939,3.0943,3.0929,3.094,3.094,3.094,0,3.1192,3.1175,3.1151,3.1126,3.1119,3.1106,3.1084,3.1069,3.1047,3.1037,3.1021,3.1009,3.0989,3.0989,3.0959,3.0967,3.0955,3.0944,3.0943,3.0939,3.094,3.0935,3.0925,3.0922,3.0936,3.0936,3.0937,0,3.1196,3.1167,3.1148,3.1138,3.111,3.11,3.1088,3.1066,3.1053,3.1033,3.1024,3.1001,3.0989,3.097,3.0951,3.0953,3.0923,3.0922,3.0913,3.0913,3.0907,3.0908,3.0894,3.09,3.09,3.09,3.09,0,3.1188,3.1174,3.1149,3.1138,3.112,3.1103,3.1085,3.1071,3.1052,3.1036,3.1022,3.1006,3.0983,3.0964,3.0949,3.0926,3.092,3.0911,3.0907,3.0912,3.0913,3.0903,3.0903,3.09,3.09,3.09,3.09,0,3.119,3.1173,3.1152,3.1126,3.1119,3.1107,3.1084,3.1071,3.1057,3.1036,3.103,3.1006,3.0983,3.0963,3.0932,3.0922,3.0898,3.0893,3.0906,3.0903,3.0895,3.0896,3.0875,3.087,3.088,3.088,3.088,0,3.1186,3.1175,3.1148,3.1137,3.1125,3.1107,3.1094,3.1075,3.1061,3.1035,3.1025,3.1001,3.0981,3.0944,3.0922,3.0898,3.0892,3.0886,3.0888,3.0893,3.0891,3.0892,3.0889,3.0886,3.0886,3.0886,3.0886,0,3.118,3.1172,3.1155,3.1134,3.1119,3.1101,3.1083,3.1074,3.1051,3.1036,3.1013,3.0998,3.0966,3.0941,3.0915,3.0899,3.0888,3.0886,3.0882,3.0887,3.0894,3.0889,3.0905,3.0886,3.0886,3.0886,3.0886,3.0886,3.1178,3.1167,3.1146,3.1127,3.1111,3.1094,3.108,3.1063,3.1044,3.1018,3.1008,3.0984,3.0959,3.0922,3.0907,3.0886,3.0884,3.0879,3.0878,3.0877,3.0877,3.0898,3.0881,3.0881,3.0881,3.0881,3.0881,0,3.1171,3.1157,3.1139,3.1114,3.1098,3.1091,3.1069,3.1056,3.1035,3.1015,3.0995,3.0967,3.0943,3.0919,3.0893,3.0881,3.0875,3.0875,3.0875,3.0871,3.0881,3.0886,3.088,3.088,3.088,3.088,3.088,3.088,3.1166,3.1146,3.1135,3.1106,3.1091,3.1069,3.1057,3.104,3.1023,3.0993,3.0974,3.0959,3.0936,3.0908,3.0885,3.0878,3.0868,3.0869,3.0861,3.087,3.0871,3.0871,3.0876,3.0867,3.0867,3.0853,3.0853,3.0853]}]]